Location: Bambrugge
(50.9212°N, 3.9299°E)
Time: 04:25:49
(UTC+00:00)

Timation 1 Rocket - Pass Details

Date: 09 August 2024
Orbit: 895 x 909 km, 70.0° (Epoch: 12 September)

Event Time Altitude Azimuth Distance (km) Brightness Sun altitude
Rises 20:30:46 0° 314° (NW) 3,547 9.7 -10.7°
Reaches altitude 10° 20:35:16 10° 283° (WNW) 2,600 7.8 -11.2°
Maximum altitude 20:37:04 11° 265° (W) 2,496 7.3 -11.4°
Drops below altitude 10° 20:38:52 10° 247° (WSW) 2,595 7.1 -11.6°
Sets 20:43:22 0° 216° (SW) 3,530 7.3 -12.1°
